Zurück zum Katalog

SKYNET 5A

AktivMilitärGEO
NORAD 30794·PAYLOAD·🇬🇧 United Kingdom

Gestartet Mar 11, 2007 von Guiana Space Centre

Loading…

TLE

AktuellSource: Space-Track

Epoche: Sep 14, 2026, 12:32 UTC

1 30794U 07007B   26257.52270203 -.00000278  00000-0  00000-0 0  9998
2 30794   5.5216  72.6042 0003422 108.7748  95.5279  1.00272945 71590

Verfolge SKYNET 5A in Echtzeit mit AllMySat

Download on the App Store